Regional Weather Roundup
Issued by NWS Jackson, KY

Home | Current Version | Previous Version | Text Only | Print | Product List | Glossary On
Versions: 1 2 3 4 5 6 7 8 9 10 11 12 13 14 15 16 17 18 19 20 21 22 23 24 25 26 27 28 29 30 31 32 33 34 35 36 37 38 39 40 41 42 43 44 45 46 47 48 49 50
000
ASUS43 KJKL 270610
RWRJKL

EAST KENTUCKY HOURLY WEATHER ROUNDUP
NATIONAL WEATHER SERVICE JACKSON KY
100 AM EST FRI FEB 27 2015

NOTE: "FAIR" INDICATES FEW OR NO CLOUDS BELOW 12,000 FEET WITH
NO SIGNIFICANT WEATHER AND/OR OBSTRUCTIONS TO VISIBILITY.

* THESE REPORTS ARE NOT UNDER NWS QUALITY CONTROL AND MAY NOT
  REPORT WEATHER SUCH AS PRECIPITATION AND FOG.

KYZ079-080-083-085-087-088-110-112-115-119-120-270700
...EASTERN KENTUCKY...

CITY           SKY/WX    TMP DP  RH WIND       PRES   REMARKS
JACKSON        CLOUDY    21  13  71 N5        30.24S WCI  15
6HR MIN TEMP:  21; 6HR MAX TEMP:  31; 6HR PCP: TRACE;

LONDON         CLOUDY    24  16  71 N10       30.26R WCI  14
6HR MIN TEMP:  24; 6HR MAX TEMP:  33; 6HR PCP: TRACE;

SOMERSET*      LGT SNOW  21  18  86 N9        30.32R WCI  11
MONTICELLO*    LGT SNOW  23  19  86 NW9       30.33R FOG     WCI  13
6HR MIN TEMP:  23; 6HR MAX TEMP:  35; 6HR PCP: TRACE;

MIDDLESBORO*   CLOUDY    30  20  68 NW3       30.24R
6HR MIN TEMP:  26; 6HR MAX TEMP:  34;

HAZARD APT*    FLURRIES  25  19  80 N3        30.25R
BLACK MTN*       N/A     16  16 100 VRB7        N/A  WCI   6
PIKEVILLE APT* FLURRIES  21  18  86 N9        30.22R WCI  11
BIG SANDY*     LGT SNOW  22  17  83 N5        30.25R WCI  15
6HR MIN TEMP:  22; 6HR MAX TEMP:  33;

MOREHEAD APT*  CLOUDY    16   9  73 NW8       30.33R WCI   5
$$

KYZ035-036-041-042-044-050-067-078-099-270700
...CENTRAL KENTUCKY...

CITY           SKY/WX    TMP DP  RH WIND       PRES   REMARKS
MT STERLING*   FLURRIES  18  12  79 NE5       30.33R WCI  11
FLEMING/MASON* CLEAR     12   3  67 N7        30.35R WCI   2
DANVILLE*      LGT SNOW  19  14  79 N8        30.33S WCI   9
RICHMOND*      CLOUDY    18  12  79 N6        30.31R WCI   9
LEXINGTON      PTCLDY    14   7  73 N8        30.33S WCI   3
6HR MIN TEMP:  14; 6HR MAX TEMP:  26; 6HR PCP: TRACE;

FRANKFORT      CLEAR     14   5  67 N5        30.35R WCI   6
6HR MIN TEMP:  14; 6HR MAX TEMP:  24; 6HR PCP: TRACE;

$$

KYZ091>093-OHZ055-061-077-WVZ005-015-034-035-042-270700
...SOUTHERN OHIO/WEST VIRGINIA...

CITY           SKY/WX    TMP DP  RH WIND       PRES   REMARKS
COVINGTON      CLOUDY    11   4  73 NW7       30.35R WCI   0
COLUMBUS       CLEAR      8   3  80 N5        30.33R WCI   0
DAYTON         MOCLDY     7   3  84 W3        30.34R
WILMINGTON       N/A      8   2  76 NW3       30.32R
HUNTINGTON     CLOUDY    16   9  74 NW9       30.30R WCI   4
CHARLESTON     LGT SNOW  21  17  84 N5        30.25R FOG     WCI  15
PINEVILLE*     CLOUDY    29  20  70 MISG      30.21R
BECKLEY        CLOUDY    22  13  68 NW9       30.10R WCI  12
BLUEFIELD      CLOUDY    26  16  65 NW10      30.09R WCI  16
$$

VAZ002-007-008-TNZ017-027-036-066-071-270700
...SOUTHWEST VIRGINIA/EAST TENNESSEE...

CITY           SKY/WX    TMP DP  RH WIND       PRES   REMARKS
WISE*          CLOUDY    27  16  63 NW5       30.13R WCI  21
JONESVILLE*    CLOUDY    30  19  64 N3        30.22R
ABINGDON*      CLOUDY    32  22  67 NW6       30.14R WCI  26
BRISTOL        CLOUDY    28  28 100 CALM      30.17R FOG
KNOXVILLE      CLOUDY    32  26  78 N6        30.21R WCI  26
OAK RIDGE      CLOUDY    34  21  59 CALM      30.23R
CROSSVILLE     CLOUDY    27  21  78 N8        30.20S WCI  19
NASHVILLE      CLOUDY    26  16  65 NW13      30.36R WCI  15
$$

...KEY TO REMARKS...
VSB - VISIBILITY IN MILES
WCI - WIND CHILL INDEX
HX  - HEAT INDEX

$$



USA.gov is the U.S. government's official web portal to all federal, state and local government web resources and services.